LEMUR 2 TRUTNA

Last updated on April 8, 2017, 12:15 a.m. UTC

1 42067U 98067LC  17096.95341838  .00030575  00000-0  43334-3 0  9993
2 42067  51.6434  33.0966 0009102  38.9943 321.1704 15.56151374  4740

Satellite is not in orbit.